EHI
0 0 0 1 1 0 0 0 0 1 3 9 17 23 28 34 38 37 38 40 40 38 41 41 40 40 38 35 34 34 34 34 32 30 27 26 26 27 27 24 20 18 16 14
0 0 0 1 2 1 1 0 0 1 6 13 20 24 28 33 36 37 39 40 39 37 39 41 40 38 37 36 37 39 38 35 32 31 29 27 26 26 25 23 21 20 19 18
0 0 0 1 2 3 2 1 0 1 7 16 21 23 27 32 36 38 40 39 35 33 35 39 38 37 36 38 41 43 41 38 35 33 31 29 28 27 25 23 21 22 23 22
0 0 0 1 2 3 3 3 2 2 6 13 17 19 23 29 34 37 39 37 31 28 31 36 36 35 37 40 43 44 41 38 38 37 34 31 30 28 26 23 21 22 24 24
0 0 0 1 2 3 2 3 5 5 7 11 15 16 20 25 29 33 35 34 30 27 31 34 33 32 35 37 40 41 39 36 37 39 37 33 30 29 27 26 24 23 23 23
0 0 1 2 3 2 1 4 7 9 11 13 15 16 20 24 26 28 31 30 28 28 31 33 31 31 33 34 33 33 33 33 35 37 36 31 28 28 29 30 29 26 23 21
0 0 2 4 4 4 4 7 11 14 16 16 17 18 21 23 24 25 27 27 25 26 29 31 31 31 33 32 28 27 27 29 31 31 29 27 26 27 29 31 31 27 23 21
2 3 6 8 9 9 10 12 15 18 19 20 20 19 19 20 20 21 23 22 22 24 27 29 31 32 33 32 29 25 23 24 24 21 19 21 23 25 25 26 25 23 22 21
7 9 11 12 13 14 14 15 17 18 18 18 17 15 16 17 17 17 18 17 19 23 27 29 29 30 30 29 27 24 22 20 17 13 12 15 19 21 22 22 21 20 19 18
11 12 14 14 14 14 15 15 16 17 16 15 13 13 14 14 14 15 15 15 17 21 24 27 26 24 23 23 22 22 22 19 15 10 9 13 16 18 20 21 21 20 17 15
12 13 14 13 12 14 15 15 14 14 14 12 11 10 9 9 10 11 12 12 13 16 17 19 19 19 19 20 20 20 20 17 13 10 9 11 14 16 17 18 17 16 14 12
13 14 14 13 12 13 14 12 10 10 9 8 7 6 5 3 4 6 9 9 9 11 11 12 13 15 17 18 19 18 16 13 12 10 9 10 13 14 13 11 10 9 8 7
12 13 14 13 11 10 10 8 6 6 5 4 3 3 1 0 1 4 7 7 7 7 9 9 10 11 13 16 17 17 15 13 13 13 10 10 11 11 9 7 6 5 4 2
8 10 12 12 10 8 6 4 3 3 3 1 0 0 0 0 1 3 5 6 5 6 7 8 8 9 10 12 14 15 14 14 15 15 12 11 10 9 8 7 7 6 4 2
6 8 10 11 10 6 3 1 1 1 1 0 0 0 0 0 1 2 3 3 4 4 5 6 6 7 9 10 10 10 11 12 12 13 12 11 9 6 6 7 8 8 7 5
6 7 9 9 7 4 1 0 0 0 0 0 0 0 0 0 2 2 1 1 2 3 4 5 5 5 7 8 6 6 7 7 7 7 8 7 6 5 4 5 6 8 8 8
5 5 5 4 4 2 1 0 0 0 0 0 0 0 0 0 2 2 1 0 0 1 3 5 5 4 4 5 4 4 4 3 4 4 4 4 4 4 4 4 4 5 6 7
3 3 2 1 1 1 0 0 0 0 0 0 0 0 0 1 2 3 2 0 0 0 1 3 3 3 3 3 3 3 3 3 3 3 3 3 3 4 4 3 3 3 3 4
2 2 1 0 0 0 0 0 0 0 0 0 0 0 0 1 2 2 1 0 0 0 0 1 1 2 3 3 2 2 2 2 1 1 2 2 1 2 3 3 3 3 3 2
1 1 0 0 0 0 0 0 0 0 0 1 1 0 0 0 1 1 0 0 0 0 0 0 0 1 2 1 1 1 1 1 0 0 1 1 0 1 2 3 3 3 3 2
0 0 0 0 0 0 0 0 0 0 1 2 1 0 0 0 0 0 0 0 0 0 0 0 1 1 1 0 0 0 0 0 0 0 1 1 0 1 2 3 4 4 3 2
0 0 0 1 1 1 0 0 0 0 1 1 1 0 0 0 0 0 0 0 0 0 0 1 1 1 0 0 0 0 0 0 0 0 0 0 0 1 2 4 5 6 5 5
0 1 1 1 2 1 0 0 0 0 0 0 0 0 0 0 0 0 0 0 0 0 0 1 1 1 0 0 0 0 0 1 1 1 0 1 1 1 2 3 4 5 5 5
1 1 2 2 2 1 0 0 0 0 0 0 0 0 0 0 0 0 0 0 0 0 0 0 0 0 0 0 0 0 0 1 3 3 2 2 2 2 2 1 2 3 4 4
0 1 2 1 1 0 0 0 0 0 0 0 0 0 0 0 0 0 0 0 0 0 0 0 0 0 0 0 0 0 0 1 3 4 3 2 1 1 1 0 0 1 2 3
0 0 0 0 0 0 0 0 0 0 0 0 0 0 0 0 0 0 0 0 0 0 0 0 0 0 0 0 0 0 0 1 2 3 3 1 0 0 0 0 0 0 1 2
0 0 0 0 0 0 0 0 0 0 0 0 0 0 0 0 0 0 0 0 0 0 0 0 0 0 0 0 0 0 0 1 2 2 1 0 0 0 0 0 0 0 0 1
Wind_Speed
9 7 9 11 12 12 13 12 13 11 9 6 4 3 3 4 4 5 5 6 6 6 5 5 5 5 5 6 6 6 7 7 6 6 5 5 5 5 5 5 5 5 6 6
9 8 9 9 9 11 11 11 10 9 7 1 3 4 4 4 4 4 5 5 5 5 5 5 5 5 5 5 6 6 6 6 5 5 5 5 5 5 5 5 5 5 6 6
10 9 10 11 8 9 8 8 9 9 3 3 4 4 4 4 4 4 4 4 5 4 4 4 4 4 5 5 6 6 6 5 5 5 5 5 5 4 5 5 5 5 6 6
8 9 14 3 1 4 5 4 3 1 2 3 3 3 4 3 3 3 3 3 3 3 3 3 3 3 4 5 5 6 5 5 5 5 5 4 4 4 4 4 4 4 5 5
8 11 9 5 4 4 5 4 1 2 4 4 3 5 5 4 3 2 2 2 2 2 2 3 3 3 4 4 4 4 4 4 4 4 4 4 4 4 4 4 4 5 5 5
8 11 10 4 4 1 5 6 3 3 4 4 3 4 4 4 3 2 2 2 2 2 1 2 2 3 4 4 4 3 3 3 3 3 3 4 4 4 4 5 6 5 5 5
10 10 3 4 3 5 7 2 4 3 4 3 1 3 3 2 2 2 2 2 2 2 1 1 2 3 3 3 2 2 2 2 2 3 4 4 4 4 4 5 5 5 5 6
8 10 3 4 3 2 4 5 4 4 3 3 4 4 3 3 2 2 2 2 2 1 1 0 1 2 2 1 1 1 1 2 2 3 4 3 3 3 4 4 5 5 5 6
3 2 5 3 4 5 4 4 4 3 3 3 3 2 3 3 3 3 2 2 1 1 1 1 1 0 1 1 2 1 2 2 3 3 3 3 3 4 4 4 5 4 4 4
2 3 4 4 4 4 3 4 3 3 2 2 1 2 2 2 3 3 2 2 2 1 1 1 1 1 2 2 1 1 2 3 3 4 4 3 3 4 3 3 4 4 4 4
3 3 3 3 3 3 3 3 3 2 2 1 1 1 1 2 2 2 2 2 2 2 2 2 2 2 2 2 2 2 3 4 4 4 3 3 3 3 4 3 3 4 4 4
2 3 1 2 2 2 2 2 2 2 2 3 2 1 1 2 2 2 3 2 2 3 3 2 2 2 2 2 3 4 3 3 3 3 3 3 3 3 1 3 1 2 3 4
1 1 1 3 3 2 2 2 2 2 2 2 2 1 2 2 2 2 3 3 3 4 3 3 3 2 2 2 3 4 4 4 3 3 3 3 3 3 3 2 2 1 1 2
2 2 3 3 3 3 3 2 2 2 2 1 1 2 2 2 3 3 4 4 4 4 4 3 3 3 2 2 3 4 5 3 4 3 3 2 3 3 3 3 2 1 2 2
2 1 2 3 3 3 3 2 2 1 1 1 1 1 2 2 3 3 4 4 4 4 4 4 4 4 4 4 4 4 4 3 3 3 3 2 2 3 2 2 2 1 1 2
2 2 3 3 3 3 3 2 1 1 0 1 1 2 2 2 2 3 3 4 4 4 5 4 4 4 4 4 4 3 3 2 3 3 3 2 2 2 2 2 2 1 1 1
4 3 3 2 2 2 2 1 1 1 1 1 1 1 2 2 2 2 3 4 4 4 4 4 4 4 4 3 4 3 2 1 1 3 2 2 2 2 2 2 1 1 1 0
2 1 1 2 2 2 2 1 1 1 1 1 1 1 2 2 2 2 3 3 4 4 4 3 4 4 4 3 3 3 2 2 2 1 2 2 2 2 2 2 2 1 1 1
2 2 2 2 2 2 2 2 1 1 1 1 1 2 2 2 2 2 3 3 3 3 3 3 2 3 2 3 3 2 2 2 2 1 1 1 2 2 2 1 1 1 1 0
2 2 3 3 3 3 2 2 2 2 2 2 2 2 2 2 2 2 3 3 3 3 3 2 2 2 2 2 3 2 2 1 1 1 1 2 2 1 1 1 1 0 0 0
1 2 2 2 3 3 2 3 3 2 2 2 2 2 2 2 2 2 3 2 2 3 3 2 3 2 2 2 3 2 1 1 1 1 1 1 1 1 1 0 0 0 0 0
2 2 2 2 3 2 2 3 2 2 1 1 1 1 2 2 2 2 2 2 2 3 3 3 2 2 3 4 2 1 1 1 1 1 1 1 1 1 1 1 1 1 1 1
2 2 2 3 3 3 2 2 2 1 1 1 1 1 2 2 2 2 2 2 2 3 4 3 3 3 4 3 2 2 1 1 2 2 2 2 2 2 2 2 2 2 1 1
2 2 2 2 3 3 2 1 1 1 1 1 1 1 1 1 1 2 2 1 2 3 3 2 2 4 5 3 2 2 2 2 2 2 2 2 2 2 2 2 2 1 1 2
2 2 2 2 2 2 2 1 1 2 2 1 1 1 1 1 1 2 2 2 2 3 2 1 3 4 4 3 2 2 2 2 2 2 2 2 2 2 2 2 2 2 2 2
2 1 2 1 1 1 1 0 1 1 1 1 0 0 1 1 1 1 1 1 2 2 2 1 1 2 2 2 2 2 2 2 2 2 2 2 2 2 1 1 2 1 1 1
2 2 2 1 1 1 1 1 0 0 0 1 1 1 1 1 0 1 1 1 1 1 1 2 1 1 2 1 1 1 1 1 1 1 1 1 2 1 1 1 1 1 1 1
Wind_Direction
248 242 220 221 217 216 229 246 256 255 250 229 197 173 148 144 143 147 147 144 142 139 141 148 154 159 162 166 169 174 178 184 186 189 191 198 205 211 217 222 226 230 237 238
223 224 220 218 219 217 226 237 245 250 247 173 127 133 141 145 149 156 154 145 139 139 141 147 156 162 166 173 172 177 182 183 181 186 190 198 206 210 215 222 230 230 235 240
216 207 215 213 216 219 218 232 243 249 238 139 149 151 149 143 147 148 140 141 143 149 144 145 153 161 172 176 174 178 183 185 185 190 195 202 209 211 217 225 232 237 240 241
219 207 227 185 138 224 215 227 268 307 95 142 143 140 129 117 113 118 129 129 142 153 148 151 154 157 166 168 173 177 181 185 188 197 203 210 213 215 222 229 236 243 247 249
226 223 213 168 180 208 213 192 139 146 122 117 122 148 135 91 74 80 91 103 116 132 152 152 155 162 167 166 169 173 178 187 195 205 209 215 221 224 230 238 243 245 247 249
230 236 229 165 126 199 222 200 136 142 134 136 165 201 114 60 34 42 61 86 110 123 151 165 163 170 177 179 179 182 195 203 206 212 217 225 231 234 233 236 238 238 240 247
232 236 212 76 118 194 227 129 121 146 147 158 124 21 62 42 34 42 59 76 96 128 153 185 185 185 186 191 195 195 212 220 215 213 223 230 238 242 243 242 241 239 239 240
232 234 198 80 161 216 51 75 102 104 108 92 72 74 86 72 54 45 56 79 99 125 135 156 188 196 202 220 282 289 257 243 237 237 242 235 241 246 244 242 236 234 234 238
305 22 66 72 68 66 79 93 96 95 94 92 98 92 86 70 48 37 42 53 56 78 78 58 24 317 287 349 344 314 280 257 257 252 250 244 240 239 237 233 240 240 238 238
153 118 110 101 86 85 90 84 82 98 112 115 108 89 78 55 37 22 20 12 3 358 345 4 5 344 325 328 318 283 260 253 248 244 241 240 248 243 247 249 249 248 246 247
182 149 143 124 88 84 81 76 79 78 95 100 95 89 67 41 22 7 353 348 334 322 314 324 336 323 323 318 298 275 262 254 250 243 241 243 248 266 263 269 282 272 265 258
208 162 189 141 116 110 106 91 82 74 68 54 46 36 23 20 6 350 336 324 314 310 313 316 308 297 293 283 270 266 261 259 254 250 239 238 240 247 248 265 261 263 277 279
36 140 123 137 144 140 126 102 84 68 57 32 22 9 347 349 344 343 335 326 317 313 311 309 303 301 304 294 281 269 269 267 261 255 245 242 250 256 255 227 184 194 215 217
115 138 145 149 149 145 130 114 96 75 57 40 11 344 339 338 337 340 335 331 326 315 307 304 302 304 305 291 280 274 271 265 261 263 257 246 253 258 261 265 248 212 176 175
180 180 155 154 156 154 155 156 156 126 69 31 9 349 349 340 338 337 334 332 328 325 323 317 312 312 312 299 289 287 286 284 277 279 273 267 269 268 270 270 271 250 187 142
134 127 147 165 177 178 181 187 189 163 75 9 0 356 349 344 346 344 340 335 327 328 330 324 318 317 314 307 300 285 279 300 295 287 278 281 275 279 285 280 277 263 234 213
178 180 182 186 192 200 208 215 226 232 239 289 327 326 321 327 342 344 332 331 327 320 318 320 324 328 319 310 297 293 296 284 247 276 287 289 283 284 292 293 287 278 281 360
198 201 220 224 227 238 241 221 205 221 243 256 266 268 284 295 315 326 321 322 320 321 327 332 335 326 319 317 311 307 298 287 273 277 286 294 298 295 292 284 273 263 260 154
206 212 223 233 240 239 234 224 214 221 233 244 257 264 275 282 298 309 306 303 303 314 331 337 316 295 315 331 317 279 277 271 271 272 263 227 245 259 263 262 280 273 256 206
183 198 207 220 225 218 213 212 213 222 238 248 253 256 267 282 293 297 294 296 309 334 344 340 311 320 318 318 291 271 269 274 281 286 290 282 269 256 246 235 234 271 318 315
193 205 200 200 197 201 202 209 215 224 232 230 239 257 279 287 286 287 287 305 335 339 327 304 286 293 307 316 276 266 257 257 269 289 289 297 299 296 284 261 240 245 198 235
221 216 203 191 189 196 202 209 205 204 206 228 247 280 291 282 276 285 306 319 324 326 302 306 312 333 315 295 286 292 284 284 283 285 296 300 298 300 300 293 286 276 259 257
230 218 202 190 189 187 190 196 185 182 198 233 256 288 304 310 307 300 313 337 322 322 304 322 346 324 299 278 287 287 284 277 279 278 277 278 281 284 284 282 290 292 294 294
212 190 180 177 179 182 182 176 171 183 207 232 247 254 267 273 297 316 332 344 314 302 305 339 305 291 279 272 276 281 281 271 263 266 269 270 274 279 285 288 282 270 263 260
170 163 157 167 172 143 132 157 172 184 198 196 205 184 248 313 315 331 334 321 307 282 283 257 244 260 264 278 283 290 292 298 303 301 290 283 284 287 283 280 278 267 254 247
136 134 117 104 76 77 101 106 114 130 151 164 161 65 37 29 355 301 284 302 308 289 287 290 278 261 276 286 280 278 281 275 262 272 299 300 289 290 298 298 280 277 267 255
127 119 126 131 121 78 33 50 58 33 80 85 69 47 44 36 349 348 339 321 321 315 328 337 335 321 318 321 329 332 328 332 340 342 332 332 338 350 359 344 339 335 317 313